SCP
0 0 0 -0 -0 0 0 0 0 0 0 0 0 0 0 0 0 0 0 0 0 0 0 0 0 0 0 0 0 0 0 0 0 0 0 0 0 0 0 0 0 0 0
0 0 0 0 0 0 0 0 0 0 0 0 0 -0 0 0 0 0 0 0 0 0 0 0 0 0 0 0 0 0 0 0 0 0 0 0 0 0 0 0 0 0 0
0 0 0 0 0 0 0 0 -0 -0 -0 -0 0 0 0 0 0 0 0 0 0 0 0 0 0 0 0 0 0 0 0 0 0 0 0 0 0 0 0 0 0 0 0
0 0 0 0 0 0 -0 -0 -0 -0 -0 0 0 0 0 0 0 0 0 0 0 0 0 0 0 0 0 0 0 0 0 0 0 0 0 0 0 0 0 -0 0 0 0
0 0 0 0 0 -0 -0 -0 -0 -0 -0 0 0 0 0 0 0 0 0 0 0 0 0 0 0 0 0 0 0 0 0 0 0 0 0 0 0 0 -0 -0 0 0 0
0 0 0 0 0 -0 -0 -0 -0 -0 0 0 0 0 0 0 0 0 0 0 0 0 0 0 0 0 0 0 0 0 0 0 0 0 0 0 0 0 -0 -0 -0 0 0
0 0 0 0 0 0 -0 -0 -0 0 0 0 0 0 0 0 0 0 0 0 0 0 0 0 0 0 0 0 0 0 0 0 0 0 0 0 0 0 0 0 -0 0 0
0 0 0 0 0 0 -0 -0 0 0 0 0 0 0 0 0 0 0 0 0 0 0 0 0 0 0 0 0 0 0 0 0 0 0 0 0 0 0 0 0 0 0 0
0 0 0 0 0 0 0 0 0 0 0 0 0 0 0 0 0 0 0 0 0 0 0 0 0 0 0 0 0 0 0 0 0 0 0 0 0 0 0 -0 -0 0 0
0 0 0 0 0 0 0 0 0 0 0 0 0 0 0 0 0 0 0 0 0 0 0 0 0 0 0 0 0 0 0 0 0 0 0 0 0 0 0 -0 -0 -0 0
0 0 0 0 0 0 0 0 0 0 0 0 0 0 0 0 0 0 0 0 0 0 0 0 0 0 0 0 0 0 0 0 0 0 0 0 0 0 0 0 -0 -0 0
0 0 0 0 0 0 0 0 0 0 0 0 0 0 0 0 0 0 0 0 0 0 0 0 0 0 0 0 0 0 0 0 0 0 0 0 0 0 0 0 0 0 0
0 0 0 0 0 0 0 0 0 0 0 0 0 0 0 0 0 0 0 0 0 0 0 0 0 0 0 0 0 0 0 0 0 0 0 0 0 0 0 0 0 0 0
0 0 0 0 0 0 0 0 0 0 0 0 0 0 0 0 0 0 0 0 0 0 0 0 0 0 0 0 0 0 0 0 0 0 0 0 0 0 0 0 0 0 0
0 0 0 0 0 0 0 0 0 0 0 0 0 0 0 0 0 0 0 0 0 0 0 0 0 0 0 0 0 0 0 0 0 0 0 0 0 0 0 0 0 0 0
0 0 0 0 0 0 0 0 0 0 0 0 0 0 0 0 0 0 0 0 0 0 0 0 0 0 0 0 0 0 0 0 0 0 0 0 0 0 0 0 0 0 0
0 0 0 0 0 0 0 0 0 0 0 0 0 0 0 0 0 0 0 0 0 0 0 0 0 0 0 0 0 0 0 0 0 0 0 0 0 0 0 0 0 0 0
0 0 0 0 0 0 0 0 0 0 0 0 0 0 0 0 0 0 0 0 0 0 0 0 0 0 0 0 0 0 0 0 0 0 0 0 0 0 0 0 0 0 0
0 0 0 0 0 0 0 0 0 0 0 0 0 0 0 0 0 0 0 0 0 0 0 0 0 0 0 0 0 0 0 0 0 0 0 0 0 0 0 0 0 0 0
0 0 0 0 0 0 0 0 0 0 0 0 0 0 0 0 0 0 0 0 0 0 0 0 0 0 0 0 0 0 0 0 0 0 0 0 0 0 0 0 0 0 0
0 0 0 0 0 0 0 0 0 0 0 0 0 0 0 0 0 0 0 0 0 0 0 0 0 0 0 0 0 0 0 -0 0 0 0 0 0 0 0 0 0 0 0
0 0 0 0 0 0 0 0 0 0 0 0 0 0 0 0 0 0 0 0 0 0 0 0 0 0 0 0 0 -0 -0 -0 0 0 0 0 0 0 0 0 0 0 0
0 0 0 0 0 0 0 0 0 0 0 0 0 0 0 0 0 0 0 0 0 0 0 0 0 0 0 0 0 0 0 0 0 0 0 0 0 0 0 0 0 0 0
0 0 0 0 0 0 0 0 0 0 0 0 0 0 0 0 0 0 0 0 0 0 0 0 0 0 0 0 0 0 0 0 0 0 0 0 0 0 0 0 0 0 0
0 0 0 0 0 0 0 0 0 0 0 0 0 0 0 0 0 0 0 0 0 0 0 0 0 0 0 0 0 0 0 0 0 0 0 0 0 0 0 0 0 0 0
0 0 0 0 0 0 0 0 0 0 0 0 0 0 0 0 0 0 0 0 0 0 0 0 0 0 0 0 0 0 0 0 0 0 0 0 0 0 0 0 0 0 0
Wind_Speed_500mb
34 28 23 21 22 20 18 16 14 11 8 7 6 5 5 3 3 3 3 4 6 8 7 6 6 7 7 8 6 4 9 11 11 11 13 15 17 16 17 15 15 21 24
33 32 29 24 22 19 16 16 16 15 13 10 10 11 11 11 9 8 6 7 7 7 9 10 10 10 11 12 9 7 9 11 13 14 15 17 18 21 24 24 22 19 21
34 31 29 28 23 20 19 16 16 16 14 12 11 11 10 9 9 11 10 9 10 10 10 10 11 11 13 13 13 13 12 14 17 18 18 19 23 28 31 32 28 25 24
33 31 30 28 26 22 21 19 18 15 15 13 13 13 13 12 12 11 9 9 10 12 12 14 17 17 16 16 16 19 21 23 24 26 28 30 34 36 30 31 33 28 29
34 30 27 26 25 22 21 21 20 20 20 18 20 19 17 17 19 19 18 17 18 19 17 18 18 19 22 21 19 21 27 31 32 33 34 34 34 32 28 25 36 39 35
34 30 27 27 25 23 23 24 23 22 21 20 20 21 22 22 20 21 23 24 23 23 25 27 27 27 24 24 26 28 31 33 35 38 37 35 35 32 32 32 34 42 40
33 30 28 27 27 29 29 27 27 25 22 21 22 22 22 22 22 24 26 24 23 25 28 29 30 31 32 34 35 36 35 37 39 43 43 41 39 36 35 38 34 41 44
30 29 26 27 29 30 29 29 28 24 21 21 18 15 13 13 14 12 13 13 14 18 22 24 27 29 31 31 34 38 40 44 45 46 48 47 44 41 41 41 43 45 48
30 27 24 21 19 17 16 17 16 16 15 12 9 7 6 5 6 6 8 8 11 13 16 17 19 21 24 27 31 37 41 45 47 49 51 53 51 48 48 49 48 53 54
30 27 25 23 21 19 18 18 17 14 11 9 6 5 4 4 6 6 7 8 10 10 12 15 16 19 21 24 27 30 35 39 46 51 53 53 53 50 51 53 54 55 61
37 33 30 28 26 23 21 20 17 14 11 8 5 4 3 5 7 7 10 11 13 15 17 17 20 22 24 26 29 32 33 36 40 44 48 50 48 52 52 55 57 60 63
43 39 36 33 29 27 24 20 18 14 12 10 8 6 6 8 9 11 14 15 16 17 19 19 22 24 25 28 29 33 35 38 39 42 46 48 51 51 50 53 55 59 63
41 42 40 36 33 28 25 21 17 14 11 9 6 5 8 9 10 12 13 14 16 17 20 21 25 28 30 33 34 36 38 40 42 44 44 47 51 55 55 55 55 62 64
48 43 41 39 33 29 25 21 18 14 10 8 7 6 8 10 9 11 13 15 17 19 22 25 28 30 31 34 37 38 39 43 45 48 49 47 49 54 59 61 64 61 64
53 50 46 42 36 32 27 24 20 15 11 9 9 7 8 9 9 11 14 17 21 24 28 30 33 35 37 38 40 44 44 45 45 48 51 50 50 53 58 63 68 75 75
56 55 49 45 40 35 31 27 22 17 13 11 8 8 9 11 12 15 18 22 26 29 31 33 36 38 40 42 45 46 49 50 51 53 54 57 56 57 58 61 65 72 79
64 57 54 47 44 39 36 31 26 20 13 10 8 9 10 13 14 16 20 24 29 32 33 36 38 40 43 43 46 47 48 50 51 53 55 56 58 59 60 60 64 69 74
65 65 55 52 50 44 41 35 29 21 16 12 10 11 11 15 17 18 23 28 31 33 35 38 41 42 44 47 49 48 49 50 51 52 49 54 53 50 53 54 55 58 66
71 68 62 57 55 49 45 40 32 25 18 13 12 14 15 16 18 22 24 27 30 32 35 38 40 45 47 49 51 51 51 55 52 56 51 46 56 61 63 62 59 58 58
75 72 65 62 59 53 48 45 40 30 22 15 12 16 18 17 19 23 25 28 30 32 35 37 40 40 45 52 57 59 58 56 66 53 53 77 74 66 63 65 67 69 64
79 79 74 70 67 62 61 56 46 33 23 17 14 17 18 19 22 24 25 27 29 31 33 38 39 39 41 52 67 77 74 70 59 55 94 79 57 77 72 72 80 84 81
83 84 78 73 71 68 62 56 46 32 28 21 15 17 19 21 25 25 26 27 28 29 31 34 37 39 44 50 60 62 48 78 39 104 59 78 93 65 63 61 71 85 89
90 91 84 78 73 69 63 60 53 40 34 26 19 17 21 24 25 27 26 28 29 30 30 30 33 39 43 48 52 44 28 31 95 67 107 83 36 78 74 76 82 79 71
91 91 84 75 71 68 65 66 59 44 35 27 23 18 23 25 26 28 28 28 28 28 27 27 30 35 44 50 56 54 52 47 30 74 98 50 85 74 87 84 81 86 86
85 88 83 75 71 69 69 68 60 51 41 35 29 22 25 27 27 28 28 28 27 26 25 26 28 35 43 50 55 62 65 58 49 54 95 117 103 76 79 83 83 89 92
86 86 81 76 74 71 70 68 65 57 47 42 34 28 28 29 30 29 29 28 25 24 23 26 31 39 45 52 59 63 68 57 60 60 72 99 98 105 84 80 74 84 89
Wind_Direction_500mb
180 187 189 188 193 193 195 198 203 208 212 217 225 234 246 269 311 340 354 349 359 360 355 341 312 321 323 319 321 274 240 247 263 288 302 305 300 291 300 297 296 288 278
183 182 188 192 192 191 193 205 212 216 218 223 233 249 256 259 269 280 290 307 319 333 338 341 332 312 312 308 289 268 269 267 272 274 289 299 299 294 294 294 301 297 288
186 188 192 199 202 204 204 204 204 209 216 221 236 251 269 285 284 264 267 272 283 297 299 303 307 313 306 299 275 269 261 281 285 292 294 297 296 298 291 285 282 284 291
189 191 195 203 210 215 217 215 214 217 222 226 240 251 262 269 277 271 276 287 284 278 283 288 290 290 293 300 292 274 265 275 282 286 289 294 296 297 283 280 273 273 281
188 193 197 207 216 222 224 229 229 231 238 235 244 256 270 270 265 266 275 284 282 274 273 276 280 279 279 281 283 279 274 277 279 278 285 290 294 293 278 275 274 273 278
191 198 204 211 219 225 230 231 229 230 234 237 246 259 267 271 268 264 269 277 277 273 275 275 271 271 275 278 278 278 275 275 276 277 280 283 287 290 275 274 274 273 275
193 203 213 222 233 239 237 232 231 231 236 244 248 255 260 261 264 268 272 272 273 272 273 273 274 273 271 271 272 270 272 274 273 275 277 280 281 280 277 272 268 272 270
200 208 219 233 239 240 235 229 229 232 236 239 242 243 250 255 258 265 272 275 277 273 273 272 271 270 270 268 268 270 273 271 270 272 274 274 275 278 276 271 269 263 266
204 213 219 220 216 202 181 174 169 174 173 177 189 200 217 233 252 256 264 271 271 274 276 282 280 280 276 272 268 266 267 270 273 272 272 274 274 274 275 274 272 261 262
210 209 209 205 194 177 166 154 158 163 164 179 189 193 201 223 247 255 266 273 285 289 299 295 301 293 291 289 283 278 275 275 271 271 271 271 273 272 273 271 272 266 262
207 207 208 202 191 184 173 168 169 175 177 181 202 215 228 247 258 275 285 295 300 303 300 303 298 295 294 292 291 288 284 280 279 279 278 275 269 264 266 268 268 266 265
209 210 204 195 192 187 182 178 183 185 187 190 203 225 250 267 280 288 293 298 300 300 300 301 296 294 295 294 291 290 289 286 283 281 280 279 276 267 262 265 267 264 264
213 208 204 195 194 188 190 191 189 195 189 189 208 236 267 277 286 291 298 301 301 305 304 302 300 303 303 302 299 298 296 293 291 287 283 280 279 277 267 261 258 262 262
209 210 204 198 198 197 197 198 198 200 194 206 225 238 267 282 296 308 309 308 309 307 306 305 306 307 308 307 307 304 301 299 298 296 295 290 284 279 275 269 260 257 255
211 209 205 202 200 203 204 203 202 194 199 224 246 260 275 292 309 313 315 315 314 315 314 316 316 317 314 312 311 307 308 307 307 305 302 297 290 283 278 273 267 260 253
213 210 204 203 203 205 208 205 202 199 213 236 260 292 306 315 315 321 321 319 318 318 320 319 318 314 315 315 313 314 314 316 315 312 308 303 300 294 287 280 273 269 264
215 209 206 205 206 207 208 204 205 208 222 247 270 289 308 304 310 316 316 319 320 321 321 317 314 315 317 315 315 318 319 318 316 314 311 310 307 304 299 291 283 275 268
217 212 211 212 211 208 207 204 210 215 225 246 270 293 301 302 307 314 320 321 320 318 316 315 316 318 320 320 322 323 323 321 324 321 319 315 313 314 312 306 300 292 280
219 215 215 218 215 211 206 205 213 221 230 247 272 288 284 293 302 310 315 316 314 313 314 316 321 324 326 325 325 324 326 325 325 322 321 322 319 313 310 304 299 298 292
218 218 220 221 216 213 209 208 214 221 228 244 267 283 281 286 295 303 311 316 313 315 317 319 324 328 329 327 326 324 326 328 328 321 321 320 312 311 307 298 294 294 288
217 217 219 220 217 213 209 210 215 222 228 241 268 290 283 287 294 302 315 315 315 315 319 325 327 329 332 334 332 330 333 335 328 321 320 310 311 309 300 291 287 286 279
218 219 220 222 220 217 214 216 221 222 229 236 262 288 281 284 294 309 316 312 310 317 322 324 327 333 337 343 340 340 334 338 326 321 320 314 314 316 307 296 289 286 283
219 220 220 221 220 219 216 216 220 220 228 232 252 283 290 288 297 303 306 308 311 316 320 325 331 333 336 337 338 340 335 319 325 327 317 315 319 313 302 305 307 305 298
220 222 223 223 221 219 219 220 225 229 236 237 251 277 294 288 290 300 304 304 306 312 318 323 328 333 331 331 331 330 321 308 313 317 315 304 308 309 306 306 303 300 297
219 222 224 225 222 222 222 223 227 229 233 238 250 273 292 286 288 294 298 299 303 311 314 320 326 325 326 325 324 322 318 316 296 272 290 305 306 304 302 302 299 301 302
220 220 221 222 223 224 224 225 227 230 233 239 249 267 288 286 284 289 293 295 301 305 308 314 320 324 323 321 320 318 317 311 301 289 282 293 297 301 299 296 292 294 303
Wind_Speed_850mb
34 28 23 21 22 20 18 16 14 11 8 7 6 5 5 3 3 3 3 4 6 8 7 6 6 7 7 8 6 4 9 11 11 11 13 15 17 16 17 15 15 21 24
33 32 29 24 22 19 16 16 16 15 13 10 10 11 11 11 9 8 6 7 7 7 9 10 10 10 11 12 9 7 9 11 13 14 15 17 18 21 24 24 22 19 21
34 31 29 28 23 20 19 16 16 16 14 12 11 11 10 9 9 11 10 9 10 10 10 10 11 11 13 13 13 13 12 14 17 18 18 19 23 28 31 32 28 25 24
33 31 30 28 26 22 21 19 18 15 15 13 13 13 13 12 12 11 9 9 10 12 12 14 17 17 16 16 16 19 21 23 24 26 28 30 34 36 30 31 33 28 29
34 30 27 26 25 22 21 21 20 20 20 18 20 19 17 17 19 19 18 17 18 19 17 18 18 19 22 21 19 21 27 31 32 33 34 34 34 32 28 25 36 39 35
34 30 27 27 25 23 23 24 23 22 21 20 20 21 22 22 20 21 23 24 23 23 25 27 27 27 24 24 26 28 31 33 35 38 37 35 35 32 32 32 34 42 40
33 30 28 27 27 29 29 27 27 25 22 21 22 22 22 22 22 24 26 24 23 25 28 29 30 31 32 34 35 36 35 37 39 43 43 41 39 36 35 38 34 41 44
30 29 26 27 29 30 29 29 28 24 21 21 18 15 13 13 14 12 13 13 14 18 22 24 27 29 31 31 34 38 40 44 45 46 48 47 44 41 41 41 43 45 48
30 27 24 21 19 17 16 17 16 16 15 12 9 7 6 5 6 6 8 8 11 13 16 17 19 21 24 27 31 37 41 45 47 49 51 53 51 48 48 49 48 53 54
30 27 25 23 21 19 18 18 17 14 11 9 6 5 4 4 6 6 7 8 10 10 12 15 16 19 21 24 27 30 35 39 46 51 53 53 53 50 51 53 54 55 61
37 33 30 28 26 23 21 20 17 14 11 8 5 4 3 5 7 7 10 11 13 15 17 17 20 22 24 26 29 32 33 36 40 44 48 50 48 52 52 55 57 60 63
43 39 36 33 29 27 24 20 18 14 12 10 8 6 6 8 9 11 14 15 16 17 19 19 22 24 25 28 29 33 35 38 39 42 46 48 51 51 50 53 55 59 63
41 42 40 36 33 28 25 21 17 14 11 9 6 5 8 9 10 12 13 14 16 17 20 21 25 28 30 33 34 36 38 40 42 44 44 47 51 55 55 55 55 62 64
48 43 41 39 33 29 25 21 18 14 10 8 7 6 8 10 9 11 13 15 17 19 22 25 28 30 31 34 37 38 39 43 45 48 49 47 49 54 59 61 64 61 64
53 50 46 42 36 32 27 24 20 15 11 9 9 7 8 9 9 11 14 17 21 24 28 30 33 35 37 38 40 44 44 45 45 48 51 50 50 53 58 63 68 75 75
56 55 49 45 40 35 31 27 22 17 13 11 8 8 9 11 12 15 18 22 26 29 31 33 36 38 40 42 45 46 49 50 51 53 54 57 56 57 58 61 65 72 79
64 57 54 47 44 39 36 31 26 20 13 10 8 9 10 13 14 16 20 24 29 32 33 36 38 40 43 43 46 47 48 50 51 53 55 56 58 59 60 60 64 69 74
65 65 55 52 50 44 41 35 29 21 16 12 10 11 11 15 17 18 23 28 31 33 35 38 41 42 44 47 49 48 49 50 51 52 49 54 53 50 53 54 55 58 66
71 68 62 57 55 49 45 40 32 25 18 13 12 14 15 16 18 22 24 27 30 32 35 38 40 45 47 49 51 51 51 55 52 56 51 46 56 61 63 62 59 58 58
75 72 65 62 59 53 48 45 40 30 22 15 12 16 18 17 19 23 25 28 30 32 35 37 40 40 45 52 57 59 58 56 66 53 53 77 74 66 63 65 67 69 64
79 79 74 70 67 62 61 56 46 33 23 17 14 17 18 19 22 24 25 27 29 31 33 38 39 39 41 52 67 77 74 70 59 55 94 79 57 77 72 72 80 84 81
83 84 78 73 71 68 62 56 46 32 28 21 15 17 19 21 25 25 26 27 28 29 31 34 37 39 44 50 60 62 48 78 39 104 59 78 93 65 63 61 71 85 89
90 91 84 78 73 69 63 60 53 40 34 26 19 17 21 24 25 27 26 28 29 30 30 30 33 39 43 48 52 44 28 31 95 67 107 83 36 78 74 76 82 79 71
91 91 84 75 71 68 65 66 59 44 35 27 23 18 23 25 26 28 28 28 28 28 27 27 30 35 44 50 56 54 52 47 30 74 98 50 85 74 87 84 81 86 86
85 88 83 75 71 69 69 68 60 51 41 35 29 22 25 27 27 28 28 28 27 26 25 26 28 35 43 50 55 62 65 58 49 54 95 117 103 76 79 83 83 89 92
86 86 81 76 74 71 70 68 65 57 47 42 34 28 28 29 30 29 29 28 25 24 23 26 31 39 45 52 59 63 68 57 60 60 72 99 98 105 84 80 74 84 89
Wind_Direction_850mb
180 187 189 188 193 193 195 198 203 208 212 217 225 234 246 269 311 340 354 349 359 360 355 341 312 321 323 319 321 274 240 247 263 288 302 305 300 291 300 297 296 288 278
183 182 188 192 192 191 193 205 212 216 218 223 233 249 256 259 269 280 290 307 319 333 338 341 332 312 312 308 289 268 269 267 272 274 289 299 299 294 294 294 301 297 288
186 188 192 199 202 204 204 204 204 209 216 221 236 251 269 285 284 264 267 272 283 297 299 303 307 313 306 299 275 269 261 281 285 292 294 297 296 298 291 285 282 284 291
189 191 195 203 210 215 217 215 214 217 222 226 240 251 262 269 277 271 276 287 284 278 283 288 290 290 293 300 292 274 265 275 282 286 289 294 296 297 283 280 273 273 281
188 193 197 207 216 222 224 229 229 231 238 235 244 256 270 270 265 266 275 284 282 274 273 276 280 279 279 281 283 279 274 277 279 278 285 290 294 293 278 275 274 273 278
191 198 204 211 219 225 230 231 229 230 234 237 246 259 267 271 268 264 269 277 277 273 275 275 271 271 275 278 278 278 275 275 276 277 280 283 287 290 275 274 274 273 275
193 203 213 222 233 239 237 232 231 231 236 244 248 255 260 261 264 268 272 272 273 272 273 273 274 273 271 271 272 270 272 274 273 275 277 280 281 280 277 272 268 272 270
200 208 219 233 239 240 235 229 229 232 236 239 242 243 250 255 258 265 272 275 277 273 273 272 271 270 270 268 268 270 273 271 270 272 274 274 275 278 276 271 269 263 266
204 213 219 220 216 202 181 174 169 174 173 177 189 200 217 233 252 256 264 271 271 274 276 282 280 280 276 272 268 266 267 270 273 272 272 274 274 274 275 274 272 261 262
210 209 209 205 194 177 166 154 158 163 164 179 189 193 201 223 247 255 266 273 285 289 299 295 301 293 291 289 283 278 275 275 271 271 271 271 273 272 273 271 272 266 262
207 207 208 202 191 184 173 168 169 175 177 181 202 215 228 247 258 275 285 295 300 303 300 303 298 295 294 292 291 288 284 280 279 279 278 275 269 264 266 268 268 266 265
209 210 204 195 192 187 182 178 183 185 187 190 203 225 250 267 280 288 293 298 300 300 300 301 296 294 295 294 291 290 289 286 283 281 280 279 276 267 262 265 267 264 264
213 208 204 195 194 188 190 191 189 195 189 189 208 236 267 277 286 291 298 301 301 305 304 302 300 303 303 302 299 298 296 293 291 287 283 280 279 277 267 261 258 262 262
209 210 204 198 198 197 197 198 198 200 194 206 225 238 267 282 296 308 309 308 309 307 306 305 306 307 308 307 307 304 301 299 298 296 295 290 284 279 275 269 260 257 255
211 209 205 202 200 203 204 203 202 194 199 224 246 260 275 292 309 313 315 315 314 315 314 316 316 317 314 312 311 307 308 307 307 305 302 297 290 283 278 273 267 260 253
213 210 204 203 203 205 208 205 202 199 213 236 260 292 306 315 315 321 321 319 318 318 320 319 318 314 315 315 313 314 314 316 315 312 308 303 300 294 287 280 273 269 264
215 209 206 205 206 207 208 204 205 208 222 247 270 289 308 304 310 316 316 319 320 321 321 317 314 315 317 315 315 318 319 318 316 314 311 310 307 304 299 291 283 275 268
217 212 211 212 211 208 207 204 210 215 225 246 270 293 301 302 307 314 320 321 320 318 316 315 316 318 320 320 322 323 323 321 324 321 319 315 313 314 312 306 300 292 280
219 215 215 218 215 211 206 205 213 221 230 247 272 288 284 293 302 310 315 316 314 313 314 316 321 324 326 325 325 324 326 325 325 322 321 322 319 313 310 304 299 298 292
218 218 220 221 216 213 209 208 214 221 228 244 267 283 281 286 295 303 311 316 313 315 317 319 324 328 329 327 326 324 326 328 328 321 321 320 312 311 307 298 294 294 288
217 217 219 220 217 213 209 210 215 222 228 241 268 290 283 287 294 302 315 315 315 315 319 325 327 329 332 334 332 330 333 335 328 321 320 310 311 309 300 291 287 286 279
218 219 220 222 220 217 214 216 221 222 229 236 262 288 281 284 294 309 316 312 310 317 322 324 327 333 337 343 340 340 334 338 326 321 320 314 314 316 307 296 289 286 283
219 220 220 221 220 219 216 216 220 220 228 232 252 283 290 288 297 303 306 308 311 316 320 325 331 333 336 337 338 340 335 319 325 327 317 315 319 313 302 305 307 305 298
220 222 223 223 221 219 219 220 225 229 236 237 251 277 294 288 290 300 304 304 306 312 318 323 328 333 331 331 331 330 321 308 313 317 315 304 308 309 306 306 303 300 297
219 222 224 225 222 222 222 223 227 229 233 238 250 273 292 286 288 294 298 299 303 311 314 320 326 325 326 325 324 322 318 316 296 272 290 305 306 304 302 302 299 301 302
220 220 221 222 223 224 224 225 227 230 233 239 249 267 288 286 284 289 293 295 301 305 308 314 320 324 323 321 320 318 317 311 301 289 282 293 297 301 299 296 292 294 303